Time,TemperatureF,DewpointF,PressureIn,WindDirection,WindDirectionDegrees,WindSpeedMPH,WindSpeedGustMPH,Humidity,HourlyPrecipIn,Conditions,Clouds,dailyrainin,SolarRadiationWatts/m^2,SoftwareType,DateUTC
2013-02-02 00:02:00,40.4,39.0,30.30,ESE,118,0.0,0.0,93,0.00,,,0.00,0,weatherlink.com 1.10,2013-02-02 05:02:00,
2013-02-02 00:17:00,40.1,38.0,30.30,ESE,118,0.0,0.0,93,0.00,,,0.00,0,weatherlink.com 1.10,2013-02-02 05:17:00,
2013-02-02 00:32:00,39.9,38.0,30.30,ESE,118,0.0,0.0,94,0.00,,,0.00,0,weatherlink.com 1.10,2013-02-02 05:32:00,
2013-02-02 00:47:00,39.6,38.0,30.30,ESE,118,0.0,0.0,94,0.00,,,0.00,0,weatherlink.com 1.10,2013-02-02 05:47:00,
2013-02-02 01:02:00,39.4,38.0,30.30,NNE,15,0.0,1.0,94,0.00,,,0.00,0,weatherlink.com 1.10,2013-02-02 06:02:00,
2013-02-02 01:17:00,39.3,38.0,30.30,NNE,15,0.0,0.0,94,0.00,,,0.00,0,weatherlink.com 1.10,2013-02-02 06:17:00,
2013-02-02 01:32:00,39.2,38.0,30.31,NNE,15,1.0,2.0,94,0.00,,,0.00,0,weatherlink.com 1.10,2013-02-02 06:32:00,
2013-02-02 01:47:00,38.9,37.0,30.30,NNE,15,0.0,0.0,94,0.00,,,0.00,0,weatherlink.com 1.10,2013-02-02 06:47:00,
2013-02-02 02:02:00,38.8,37.0,30.30,NNE,15,0.0,0.0,94,0.00,,,0.00,0,weatherlink.com 1.10,2013-02-02 07:02:00,
2013-02-02 02:17:00,38.6,37.0,30.30,NNE,15,0.0,0.0,95,0.00,,,0.00,0,weatherlink.com 1.10,2013-02-02 07:17:00,
2013-02-02 02:32:00,38.3,37.0,30.29,NNE,15,0.0,0.0,95,0.00,,,0.00,0,weatherlink.com 1.10,2013-02-02 07:32:00,
2013-02-02 02:47:00,38.3,37.0,30.29,NNE,15,1.0,2.0,95,0.00,,,0.00,0,weatherlink.com 1.10,2013-02-02 07:47:00,
2013-02-02 03:17:00,39.3,38.0,30.29,North,11,1.0,2.0,96,0.00,,,0.00,0,weatherlink.com 1.10,2013-02-02 08:17:00,
2013-02-02 03:32:00,39.3,38.0,30.29,North,11,1.0,2.0,96,0.00,,,0.00,0,weatherlink.com 1.10,2013-02-02 08:32:00,
2013-02-02 03:47:00,39.7,39.0,30.29,North,11,1.0,3.0,96,0.00,,,0.00,0,weatherlink.com 1.10,2013-02-02 08:47:00,
2013-02-02 04:17:00,40.5,39.0,30.29,North,11,2.0,3.0,95,0.00,,,0.00,0,weatherlink.com 1.10,2013-02-02 09:17:00,
2013-02-02 04:32:00,41.0,40.0,30.29,NNE,24,2.0,4.0,95,0.00,,,0.00,0,weatherlink.com 1.10,2013-02-02 09:32:00,
2013-02-02 04:47:00,41.5,40.0,30.29,NNE,30,1.0,4.0,94,0.00,,,0.00,0,weatherlink.com 1.10,2013-02-02 09:47:00,
2013-02-02 05:02:00,42.1,41.0,30.29,North,5,2.0,4.0,94,0.00,,,0.00,0,weatherlink.com 1.10,2013-02-02 10:02:00,
2013-02-02 05:18:00,42.5,41.0,30.29,North,9,3.0,4.0,93,0.00,,,0.00,0,weatherlink.com 1.10,2013-02-02 10:18:00,
2013-02-02 05:32:00,42.9,41.0,30.30,North,355,3.0,4.0,92,0.00,,,0.00,0,weatherlink.com 1.10,2013-02-02 10:32:00,
2013-02-02 05:47:00,43.2,41.0,30.30,NNW,345,3.0,4.0,92,0.00,,,0.00,0,weatherlink.com 1.10,2013-02-02 10:47:00,
2013-02-02 06:02:00,43.6,42.0,30.30,North,355,1.0,4.0,92,0.00,,,0.00,0,weatherlink.com 1.10,2013-02-02 11:02:00,
2013-02-02 06:17:00,43.8,41.0,30.30,NNE,17,2.0,4.0,91,0.00,,,0.00,0,weatherlink.com 1.10,2013-02-02 11:17:00,
2013-02-02 06:32:00,43.7,41.0,30.31,NNE,12,1.0,3.0,90,0.00,,,0.00,0,weatherlink.com 1.10,2013-02-02 11:32:00,
2013-02-02 06:48:00,43.6,41.0,30.32,NNE,15,2.0,3.0,90,0.00,,,0.00,0,weatherlink.com 1.10,2013-02-02 11:48:00,
2013-02-02 07:03:00,43.5,41.0,30.32,NNE,24,2.0,3.0,90,0.00,,,0.00,0,weatherlink.com 1.10,2013-02-02 12:03:00,
2013-02-02 07:18:00,43.4,41.0,30.32,NNE,24,2.0,3.0,91,0.00,,,0.00,7,weatherlink.com 1.10,2013-02-02 12:18:00,
2013-02-02 07:33:00,43.3,41.0,30.32,North,360,1.0,3.0,91,0.00,,,0.00,12,weatherlink.com 1.10,2013-02-02 12:33:00,
2013-02-02 07:48:00,43.8,41.0,30.32,North,11,2.0,4.0,91,0.00,,,0.00,18,weatherlink.com 1.10,2013-02-02 12:48:00,
2013-02-02 08:03:00,45.3,42.0,30.32,North,360,3.0,5.0,89,0.00,,,0.00,21,weatherlink.com 1.10,2013-02-02 13:03:00,
2013-02-02 08:18:00,47.4,43.0,30.33,NNE,12,3.0,6.0,86,0.00,,,0.00,26,weatherlink.com 1.10,2013-02-02 13:18:00,
2013-02-02 08:33:00,49.5,45.0,30.33,North,5,5.0,9.0,84,0.00,,,0.00,33,weatherlink.com 1.10,2013-02-02 13:33:00,
2013-02-02 08:48:00,52.1,46.0,30.33,North,5,4.0,6.0,80,0.00,,,0.00,47,weatherlink.com 1.10,2013-02-02 13:48:00,
2013-02-02 09:03:00,54.4,47.0,30.33,NNE,23,3.0,7.0,75,0.00,,,0.00,32,weatherlink.com 1.10,2013-02-02 14:03:00,
2013-02-02 09:18:00,56.5,48.0,30.33,North,5,6.0,8.0,72,0.00,,,0.00,397,weatherlink.com 1.10,2013-02-02 14:18:00,
2013-02-02 09:33:00,60.2,49.0,30.33,NNW,348,3.0,8.0,66,0.00,,,0.00,478,weatherlink.com 1.10,2013-02-02 14:33:00,
2013-02-02 09:48:00,63.5,49.0,30.33,NNE,13,2.0,7.0,60,0.00,,,0.00,538,weatherlink.com 1.10,2013-02-02 14:48:00,
2013-02-02 10:03:00,66.2,50.0,30.33,North,11,7.0,9.0,56,0.00,,,0.00,580,weatherlink.com 1.10,2013-02-02 15:03:00,
2013-02-02 10:19:00,68.4,49.0,30.32,North,360,5.0,8.0,51,0.00,,,0.00,621,weatherlink.com 1.10,2013-02-02 15:19:00,
2013-02-02 10:33:00,70.4,50.0,30.32,North,355,2.0,10.0,48,0.00,,,0.00,656,weatherlink.com 1.10,2013-02-02 15:33:00,
2013-02-02 10:48:00,70.6,49.0,30.31,East,86,6.0,9.0,46,0.00,,,0.00,689,weatherlink.com 1.10,2013-02-02 15:48:00,
2013-02-02 11:04:00,71.5,51.0,30.30,SW,227,0.0,11.0,48,0.00,,,0.00,712,weatherlink.com 1.10,2013-02-02 16:04:00,
2013-02-02 11:19:00,72.3,49.0,30.30,North,355,2.0,10.0,44,0.00,,,0.00,737,weatherlink.com 1.10,2013-02-02 16:19:00,
2013-02-02 11:34:00,72.4,49.0,30.29,North,360,4.0,7.0,44,0.00,,,0.00,751,weatherlink.com 1.10,2013-02-02 16:34:00,
2013-02-02 11:49:00,72.2,51.0,30.28,ESE,106,1.0,7.0,47,0.00,,,0.00,765,weatherlink.com 1.10,2013-02-02 16:49:00,
2013-02-02 12:04:00,73.0,52.0,30.28,North,360,4.0,10.0,48,0.00,,,0.00,770,weatherlink.com 1.10,2013-02-02 17:04:00,
2013-02-02 12:19:00,73.7,52.0,30.27,ENE,59,1.0,11.0,47,0.00,,,0.00,775,weatherlink.com 1.10,2013-02-02 17:19:00,
2013-02-02 12:34:00,73.0,51.0,30.27,North,355,4.0,7.0,47,0.00,,,0.00,775,weatherlink.com 1.10,2013-02-02 17:34:00,
2013-02-02 12:49:00,72.5,52.0,30.26,NE,41,2.0,6.0,48,0.00,,,0.00,770,weatherlink.com 1.10,2013-02-02 17:49:00,
2013-02-02 13:04:00,72.4,51.0,30.25,NE,48,2.0,8.0,47,0.00,,,0.00,761,weatherlink.com 1.10,2013-02-02 18:04:00,
2013-02-02 13:19:00,72.3,51.0,30.24,NNW,345,1.0,10.0,47,0.00,,,0.00,756,weatherlink.com 1.10,2013-02-02 18:19:00,
2013-02-02 13:34:00,72.6,51.0,30.23,East,90,2.0,8.0,46,0.00,,,0.00,745,weatherlink.com 1.10,2013-02-02 18:34:00,
2013-02-02 13:49:00,72.3,51.0,30.22,East,101,3.0,7.0,48,0.00,,,0.00,724,weatherlink.com 1.10,2013-02-02 18:49:00,
2013-02-02 14:04:00,71.7,52.0,30.22,NW,306,0.0,6.0,50,0.00,,,0.00,698,weatherlink.com 1.10,2013-02-02 19:04:00,
2013-02-02 14:19:00,71.2,50.0,30.22,ESE,123,2.0,8.0,48,0.00,,,0.00,682,weatherlink.com 1.10,2013-02-02 19:19:00,
2013-02-02 14:34:00,70.7,52.0,30.21,North,11,4.0,7.0,52,0.00,,,0.00,670,weatherlink.com 1.10,2013-02-02 19:34:00,
2013-02-02 14:49:00,70.4,52.0,30.21,NNW,336,4.0,9.0,52,0.00,,,0.00,629,weatherlink.com 1.10,2013-02-02 19:49:00,
2013-02-02 15:04:00,70.1,52.0,30.21,East,80,2.0,6.0,52,0.00,,,0.00,77,weatherlink.com 1.10,2013-02-02 20:04:00,
2013-02-02 15:19:00,68.7,52.0,30.20,ESE,111,1.0,5.0,55,0.00,,,0.00,102,weatherlink.com 1.10,2013-02-02 20:19:00,
2013-02-02 15:34:00,68.3,52.0,30.20,ENE,60,0.0,7.0,56,0.00,,,0.00,60,weatherlink.com 1.10,2013-02-02 20:34:00,
2013-02-02 15:49:00,67.2,52.0,30.20,East,85,2.0,3.0,59,0.00,,,0.00,81,weatherlink.com 1.10,2013-02-02 20:49:00,
2013-02-02 16:04:00,67.0,52.0,30.20,ENE,74,2.0,6.0,60,0.00,,,0.00,65,weatherlink.com 1.10,2013-02-02 21:04:00,
2013-02-02 16:19:00,66.8,52.0,30.19,SE,126,3.0,5.0,60,0.00,,,0.00,37,weatherlink.com 1.10,2013-02-02 21:19:00,
2013-02-02 16:34:00,67.1,53.0,30.19,ENE,76,1.0,7.0,60,0.00,,,0.00,32,weatherlink.com 1.10,2013-02-02 21:34:00,
2013-02-02 16:49:00,67.2,53.0,30.19,ENE,69,0.0,5.0,60,0.00,,,0.00,28,weatherlink.com 1.10,2013-02-02 21:49:00,
2013-02-02 17:04:00,66.9,52.0,30.19,East,100,2.0,5.0,60,0.00,,,0.00,25,weatherlink.com 1.10,2013-02-02 22:04:00,
2013-02-02 17:19:00,66.3,53.0,30.19,ENE,67,1.0,5.0,62,0.00,,,0.00,21,weatherlink.com 1.10,2013-02-02 22:19:00,
2013-02-02 17:34:00,65.6,52.0,30.19,East,88,0.0,2.0,62,0.00,,,0.00,16,weatherlink.com 1.10,2013-02-02 22:34:00,
2013-02-02 17:49:00,64.6,53.0,30.19,East,88,0.0,2.0,66,0.00,,,0.00,9,weatherlink.com 1.10,2013-02-02 22:49:00,
2013-02-02 18:05:00,63.1,52.0,30.19,East,88,0.0,0.0,68,0.00,,,0.00,0,weatherlink.com 1.10,2013-02-02 23:05:00,
2013-02-02 18:19:00,61.4,52.0,30.18,East,88,0.0,0.0,72,0.00,,,0.00,0,weatherlink.com 1.10,2013-02-02 23:19:00,
2013-02-02 18:34:00,59.9,52.0,30.19,East,88,0.0,0.0,75,0.00,,,0.00,0,weatherlink.com 1.10,2013-02-02 23:34:00,
2013-02-02 18:49:00,58.4,52.0,30.19,East,88,0.0,0.0,78,0.00,,,0.00,0,weatherlink.com 1.10,2013-02-02 23:49:00,
2013-02-02 19:04:00,57.0,51.0,30.19,East,88,0.0,0.0,80,0.00,,,0.00,0,weatherlink.com 1.10,2013-02-03 00:04:00,
2013-02-02 19:19:00,56.0,51.0,30.19,East,88,0.0,0.0,82,0.00,,,0.00,0,weatherlink.com 1.10,2013-02-03 00:19:00,
2013-02-02 19:34:00,55.1,50.0,30.19,East,89,0.0,0.0,84,0.00,,,0.00,0,weatherlink.com 1.10,2013-02-03 00:34:00,
2013-02-02 19:49:00,54.4,50.0,30.20,East,89,0.0,0.0,85,0.00,,,0.00,0,weatherlink.com 1.10,2013-02-03 00:49:00,
2013-02-02 20:04:00,53.6,50.0,30.20,East,89,0.0,0.0,86,0.00,,,0.00,0,weatherlink.com 1.10,2013-02-03 01:04:00,
2013-02-02 20:20:00,53.0,50.0,30.20,East,89,0.0,0.0,88,0.00,,,0.00,0,weatherlink.com 1.10,2013-02-03 01:20:00,
2013-02-02 20:34:00,52.5,49.0,30.20,East,89,0.0,0.0,89,0.00,,,0.00,0,weatherlink.com 1.10,2013-02-03 01:34:00,
2013-02-02 20:49:00,52.1,49.0,30.20,East,89,0.0,0.0,90,0.00,,,0.00,0,weatherlink.com 1.10,2013-02-03 01:49:00,
2013-02-02 21:05:00,51.8,49.0,30.20,East,89,0.0,0.0,91,0.00,,,0.00,0,weatherlink.com 1.10,2013-02-03 02:05:00,
2013-02-02 21:19:00,51.5,49.0,30.19,East,89,0.0,0.0,91,0.00,,,0.00,0,weatherlink.com 1.10,2013-02-03 02:19:00,
2013-02-02 21:34:00,51.3,49.0,30.19,East,89,0.0,0.0,91,0.00,,,0.00,0,weatherlink.com 1.10,2013-02-03 02:34:00,
2013-02-02 21:49:00,51.2,49.0,30.19,East,89,0.0,0.0,92,0.00,,,0.00,0,weatherlink.com 1.10,2013-02-03 02:49:00,
2013-02-02 22:04:00,51.2,49.0,30.19,East,89,0.0,0.0,93,0.00,,,0.00,0,weatherlink.com 1.10,2013-02-03 03:04:00,
2013-02-02 22:20:00,51.2,49.0,30.18,East,89,0.0,0.0,93,0.00,,,0.00,0,weatherlink.com 1.10,2013-02-03 03:20:00,
2013-02-02 22:35:00,51.0,49.0,30.18,East,89,0.0,0.0,93,0.00,,,0.00,0,weatherlink.com 1.10,2013-02-03 03:35:00,
2013-02-02 22:50:00,50.9,49.0,30.18,East,89,0.0,0.0,93,0.00,,,0.00,0,weatherlink.com 1.10,2013-02-03 03:50:00,
2013-02-02 23:05:00,50.7,49.0,30.18,East,89,0.0,0.0,93,0.00,,,0.00,0,weatherlink.com 1.10,2013-02-03 04:05:00,
2013-02-02 23:20:00,50.5,49.0,30.18,East,89,0.0,0.0,93,0.00,,,0.00,0,weatherlink.com 1.10,2013-02-03 04:20:00,
2013-02-02 23:35:00,50.1,48.0,30.18,East,89,0.0,0.0,93,0.00,,,0.00,0,weatherlink.com 1.10,2013-02-03 04:35:00,
2013-02-02 23:50:00,49.7,48.0,30.17,East,89,0.0,1.0,93,0.00,,,0.00,0,weatherlink.com 1.10,2013-02-03 04:50:00,